Probability
61 68 61 61 55 52 58 55 55 55 58 68 71 84 87 84 77 68 61 52 48 45 42 23 35 29 16 19 19 16 13 19 10 0 6 3 3 6 13 16 19 16 13
55 55 58 58 55 52 52 55 55 55 55 65 77 81 84 74 65 52 58 48 42 39 23 29 29 23 35 26 19 19 16 6 6 3 6 6 6 10 0 16 16 13 10
58 58 55 55 48 48 48 48 52 58 58 68 68 74 77 58 48 48 58 45 35 29 26 29 16 19 19 19 26 23 13 6 3 0 3 3 6 10 3 6 10 16 19
32 45 52 45 39 42 39 52 58 61 58 55 61 68 65 55 48 52 45 45 32 29 23 19 19 19 16 23 23 19 16 10 3 0 0 0 0 0 6 0 0 3 6
32 39 48 39 35 32 32 39 48 61 61 55 58 68 58 52 45 39 55 48 32 26 19 19 23 19 13 19 16 19 19 0 0 0 0 0 0 0 0 3 0 0 0
23 35 39 35 32 29 29 32 39 61 58 55 58 65 61 55 32 39 42 35 32 26 19 19 23 19 13 19 13 19 16 10 6 0 0 0 0 0 0 0 0 3 3
32 39 39 39 32 35 35 35 42 45 52 48 45 52 55 58 48 29 39 29 23 26 26 16 19 16 19 13 16 19 13 10 10 10 3 0 3 3 0 0 0 3 0
32 35 39 35 35 39 35 39 42 42 45 48 58 55 58 52 29 42 32 23 19 19 19 19 16 19 19 16 19 16 16 16 16 6 6 6 6 3 3 3 3 0 0
39 35 35 35 39 39 39 32 42 48 48 48 61 61 58 55 42 48 52 26 35 19 19 16 23 23 23 23 26 23 19 19 13 6 10 3 3 3 0 0 0 0 0
32 35 35 35 42 42 45 39 45 48 48 58 55 45 58 55 55 52 35 32 35 26 23 16 16 26 29 32 35 23 19 16 23 19 13 13 3 3 3 0 0 0 0
39 39 35 32 39 48 48 48 52 55 55 65 65 58 61 61 52 52 35 42 45 45 39 32 23 23 26 35 42 23 23 16 16 16 13 13 10 6 3 6 0 0 0
42 48 45 39 45 42 45 48 52 61 61 68 71 71 68 65 45 42 45 48 58 58 58 48 45 26 23 35 32 32 23 23 23 19 19 16 13 13 10 10 6 3 3
39 48 48 52 52 48 52 48 52 55 58 71 71 74 68 61 65 55 55 65 68 61 55 58 45 39 26 29 29 29 32 29 26 26 19 19 13 13 10 13 10 3 3
52 55 52 52 52 55 55 55 48 55 55 58 58 61 71 71 71 71 71 65 68 65 58 52 55 45 39 32 32 29 35 39 29 23 23 16 13 13 13 16 16 13 10
55 48 52 61 58 48 48 45 45 48 55 52 55 61 68 68 65 65 65 68 65 45 65 52 48 42 42 26 35 35 29 35 35 26 23 13 6 3 10 3 10 16 13
45 45 42 45 45 42 48 45 48 48 58 58 52 58 61 65 65 61 68 61 65 65 58 55 52 39 16 3 0 3 32 35 35 23 19 16 3 0 0 0 0 0 3
39 48 52 52 48 48 45 52 48 55 55 52 52 55 58 58 61 52 58 65 58 65 61 48 42 39 32 0 0 0 6 26 32 32 29 6 0 0 3 0 0 0 0
39 39 48 45 45 42 45 48 48 52 52 55 52 48 48 45 52 55 55 61 58 58 48 42 39 35 16 0 0 0 0 10 19 23 19 23 19 3 0 0 0 3 3
26 29 29 32 42 48 48 45 45 48 48 42 45 48 45 45 42 48 48 52 45 45 45 39 35 32 16 0 0 0 0 6 13 10 10 13 10 0 0 0 6 6 10
19 26 32 39 42 39 45 45 32 29 35 32 35 42 42 42 39 35 35 42 35 32 32 26 26 19 19 3 0 0 6 10 10 19 10 0 0 0 0 0 0 0 3
16 23 23 23 29 35 39 32 29 32 26 26 23 26 29 29 29 32 35 29 19 16 19 13 13 13 10 3 0 0 3 0 6 13 6 6 0 0 0 0 0 0 0
13 16 19 19 19 26 26 26 23 23 26 26 26 26 23 16 13 13 13 10 13 10 10 6 10 3 6 0 0 0 0 0 0 0 0 0 0 0 0 0 0 0 0
10 10 6 10 10 13 16 16 10 10 10 6 6 6 6 6 6 6 3 6 6 6 6 6 6 6 6 3 0 0 0 0 0 0 0 0 0 0 0 0 0 0 0
0 0 0 0 0 0 3 3 6 6 6 6 6 6 6 3 3 3 3 3 3 3 3 3 3 3 3 3 0 0 0 0 0 0 0 0 0 0 0 0 0 0 0
0 0 0 0 0 0 0 0 3 6 6 6 6 6 3 3 0 0 0 0 0 0 0 0 0 3 0 0 0 0 0 0 0 0 0 0 0 0 0 0 0 0 0
0 0 0 0 0 0 0 0 0 3 6 6 6 3 0 0 0 0 0 0 0 0 0 0 0 0 0 0 0 0 0 0 0 0 0 0 0 0 0 0 0 0 0
Height
5850 5847 5844 5842 5840 5840 5840 5841 5843 5845 5849 5852 5856 5860 5863 5867 5869 5872 5874 5876 5878 5880 5881 5882 5883 5885 5885 5886 5887 5887 5888 5889 5889 5889 5889 5889 5888 5888 5888 5888 5887 5887 5887
5847 5844 5842 5839 5838 5837 5837 5838 5840 5843 5846 5850 5854 5857 5861 5864 5867 5870 5872 5874 5876 5878 5879 5881 5882 5883 5884 5885 5886 5887 5888 5888 5889 5889 5889 5889 5890 5889 5888 5888 5887 5887 5887
5845 5842 5839 5837 5835 5835 5834 5835 5837 5840 5843 5847 5851 5855 5858 5861 5865 5868 5870 5872 5874 5876 5878 5880 5881 5882 5883 5884 5885 5886 5887 5888 5889 5889 5889 5890 5889 5889 5889 5888 5887 5887 5887
5843 5841 5838 5836 5834 5833 5832 5833 5834 5837 5841 5845 5849 5852 5856 5859 5863 5865 5868 5870 5872 5874 5876 5878 5880 5881 5882 5883 5884 5885 5886 5887 5888 5888 5889 5889 5889 5889 5889 5888 5888 5887 5886
5842 5839 5837 5834 5832 5831 5831 5831 5833 5835 5838 5842 5846 5850 5854 5857 5860 5863 5865 5868 5870 5873 5875 5876 5878 5880 5881 5882 5883 5884 5886 5887 5887 5888 5888 5888 5888 5888 5888 5888 5887 5887 5886
5840 5838 5835 5833 5832 5830 5830 5830 5832 5834 5837 5841 5844 5848 5851 5854 5857 5860 5863 5866 5869 5871 5873 5874 5876 5878 5880 5881 5882 5883 5884 5885 5886 5887 5887 5887 5887 5887 5887 5887 5886 5886 5885
5839 5837 5835 5833 5831 5830 5829 5829 5831 5832 5835 5839 5842 5845 5849 5852 5855 5858 5861 5864 5866 5869 5871 5872 5874 5876 5878 5879 5880 5881 5883 5884 5884 5885 5885 5885 5886 5886 5886 5885 5885 5884 5884
5838 5836 5834 5832 5830 5829 5828 5829 5830 5832 5834 5837 5840 5844 5847 5849 5852 5856 5859 5861 5864 5867 5868 5870 5872 5874 5875 5877 5878 5879 5880 5881 5882 5882 5883 5883 5883 5884 5883 5883 5883 5882 5882
5836 5835 5833 5831 5830 5829 5829 5829 5830 5832 5834 5836 5839 5842 5845 5848 5850 5853 5856 5859 5861 5864 5866 5868 5869 5871 5872 5874 5875 5876 5877 5878 5879 5880 5880 5880 5880 5880 5880 5880 5880 5880 5879
5834 5833 5832 5830 5830 5829 5829 5829 5830 5831 5833 5835 5838 5840 5843 5846 5848 5851 5854 5856 5859 5861 5863 5865 5866 5868 5869 5870 5872 5873 5874 5875 5875 5876 5876 5877 5877 5877 5876 5876 5876 5875 5875
5832 5832 5831 5830 5829 5829 5829 5830 5830 5831 5833 5835 5836 5838 5841 5843 5846 5849 5851 5853 5856 5858 5860 5861 5862 5864 5865 5866 5867 5868 5869 5870 5871 5871 5872 5872 5872 5872 5872 5871 5871 5870 5870
5830 5829 5829 5828 5828 5828 5828 5829 5830 5831 5832 5833 5835 5837 5839 5842 5844 5846 5849 5851 5853 5854 5856 5857 5858 5860 5861 5862 5862 5863 5864 5865 5866 5866 5867 5867 5867 5867 5866 5866 5865 5864 5864
5828 5827 5826 5826 5826 5827 5827 5828 5828 5829 5830 5831 5833 5835 5837 5839 5841 5844 5846 5847 5849 5851 5852 5853 5854 5855 5856 5857 5857 5858 5858 5859 5860 5860 5860 5860 5860 5860 5860 5859 5858 5858 5857
5825 5825 5825 5825 5825 5825 5826 5826 5827 5827 5828 5830 5831 5833 5834 5836 5838 5840 5842 5843 5845 5846 5847 5848 5849 5850 5851 5851 5851 5852 5852 5853 5853 5853 5853 5853 5853 5852 5852 5851 5851 5850 5849
5822 5822 5822 5822 5823 5823 5824 5824 5825 5825 5826 5827 5828 5830 5831 5833 5835 5836 5838 5839 5840 5842 5843 5843 5844 5845 5845 5845 5845 5845 5846 5846 5846 5846 5846 5845 5845 5844 5844 5843 5842 5841 5840
5819 5819 5819 5820 5820 5821 5821 5822 5822 5823 5824 5825 5826 5827 5828 5830 5831 5832 5833 5834 5836 5836 5837 5838 5838 5839 5839 5839 5839 5839 5839 5839 5838 5838 5838 5837 5836 5835 5834 5833 5832 5831 5830
5815 5815 5816 5816 5817 5817 5818 5819 5819 5820 5820 5822 5823 5824 5825 5826 5827 5828 5829 5830 5830 5831 5831 5832 5832 5832 5832 5832 5832 5831 5831 5831 5830 5829 5828 5827 5826 5826 5824 5823 5822 5821 5820
5810 5811 5812 5813 5813 5814 5814 5815 5816 5817 5817 5818 5819 5820 5821 5822 5822 5823 5823 5824 5824 5825 5825 5825 5825 5824 5824 5823 5823 5822 5822 5821 5821 5820 5818 5817 5816 5815 5813 5812 5811 5810 5809
5804 5806 5807 5808 5809 5810 5811 5812 5812 5813 5814 5814 5815 5816 5817 5817 5817 5817 5817 5818 5818 5818 5818 5818 5817 5816 5815 5815 5814 5814 5812 5812 5811 5809 5808 5806 5805 5803 5801 5800 5799 5797 5796
5798 5800 5801 5802 5803 5805 5806 5807 5808 5808 5809 5810 5810 5811 5812 5812 5812 5812 5812 5812 5811 5811 5811 5810 5809 5808 5807 5806 5805 5804 5803 5801 5800 5798 5796 5795 5793 5791 5789 5787 5786 5784 5783
5792 5793 5795 5796 5798 5799 5800 5801 5802 5803 5803 5804 5804 5805 5805 5805 5805 5805 5805 5805 5804 5803 5802 5802 5800 5799 5798 5796 5795 5794 5792 5790 5788 5786 5785 5783 5781 5779 5776 5774 5773 5771 5769
5785 5787 5789 5790 5792 5793 5794 5795 5796 5796 5797 5798 5798 5798 5798 5798 5798 5798 5797 5797 5796 5795 5794 5792 5791 5789 5788 5786 5784 5783 5781 5779 5777 5774 5772 5770 5768 5766 5763 5761 5759 5756 5754
5778 5780 5782 5784 5785 5787 5788 5789 5789 5790 5791 5791 5791 5791 5791 5791 5791 5790 5789 5788 5787 5785 5784 5782 5781 5779 5777 5775 5773 5771 5768 5766 5764 5761 5759 5757 5754 5752 5749 5747 5744 5741 5739
5772 5774 5775 5777 5779 5781 5782 5782 5783 5783 5784 5784 5784 5784 5784 5783 5782 5781 5780 5779 5777 5776 5774 5772 5770 5767 5765 5763 5761 5758 5756 5753 5750 5748 5745 5742 5740 5737 5734 5732 5729 5727 5724
5764 5767 5769 5771 5773 5774 5775 5775 5776 5776 5777 5777 5776 5776 5775 5775 5773 5772 5771 5769 5768 5766 5764 5761 5759 5756 5753 5750 5748 5745 5742 5739 5736 5733 5730 5728 5725 5722 5719 5716 5713 5711 5708
5758 5761 5763 5764 5766 5767 5767 5768 5768 5769 5769 5769 5768 5767 5766 5765 5764 5762 5761 5759 5757 5755 5752 5750 5747 5744 5741 5737 5734 5731 5728 5725 5721 5718 5715 5712 5709 5706 5703 5700 5697 5694 5692
Wind_Speed
15 13 12 13 11 11 11 12 15 19 22 23 22 21 21 20 19 17 15 12 11 9 7 7 6 6 6 5 4 4 3 3 2 2 1 0 0 0 1 1 1 2 2
14 13 11 11 9 10 11 12 14 18 22 23 21 20 20 20 18 17 16 14 12 10 8 7 7 7 6 6 5 5 5 4 3 2 1 1 0 0 1 2 2 2 2
13 11 10 9 8 9 9 11 14 19 21 21 21 21 20 19 18 17 16 14 13 11 9 8 8 8 7 7 7 6 6 5 4 3 2 1 1 0 1 2 2 3 3
12 10 10 9 8 7 7 9 13 17 21 22 20 21 20 19 18 17 16 14 13 12 10 10 9 8 8 8 8 8 7 6 5 4 3 2 2 1 1 2 3 3 3
10 11 10 9 7 6 7 8 12 15 19 20 19 20 20 19 19 18 16 15 14 13 12 11 11 10 9 10 9 8 8 7 7 5 5 4 3 3 3 3 4 4 4
9 9 9 8 6 5 5 7 11 13 17 19 19 19 19 19 18 18 17 16 15 14 13 13 12 11 11 10 10 9 9 9 8 7 6 6 6 5 5 5 5 6 6
8 9 8 7 6 4 4 5 9 12 15 17 19 19 18 18 18 18 17 16 16 15 14 14 13 13 12 11 11 11 11 10 10 9 9 8 8 8 7 8 8 8 8
9 8 8 7 6 5 3 5 7 9 12 15 18 19 18 17 17 17 17 16 16 16 15 15 14 14 13 13 13 13 13 13 12 12 11 10 10 11 11 11 11 11 11
9 9 8 7 6 4 3 4 6 8 10 13 15 17 18 16 16 17 17 17 17 16 16 16 15 15 15 14 15 15 15 14 14 14 14 14 14 14 14 15 15 15 15
9 9 9 7 6 3 3 4 5 8 10 11 13 15 17 16 16 17 16 16 17 16 15 15 16 17 16 16 16 17 17 17 17 17 17 17 17 17 17 18 18 19 19
10 9 9 8 6 5 4 4 5 7 9 10 11 13 15 17 17 17 16 16 17 16 16 17 18 18 18 18 18 19 19 19 19 19 19 20 21 21 21 21 22 22 23
10 10 9 8 6 6 5 5 6 8 9 10 11 12 14 15 16 16 17 17 17 17 18 18 18 19 19 20 21 22 22 22 22 22 22 23 24 25 25 25 26 26 26
11 10 9 8 7 7 7 7 7 9 9 10 11 12 14 15 16 17 17 18 18 18 18 19 19 20 21 22 23 24 24 25 25 25 26 27 27 28 28 29 29 29 29
11 10 9 8 8 8 8 9 10 10 11 12 12 13 14 15 17 18 19 19 20 20 20 21 21 22 22 23 24 26 26 27 27 28 29 30 30 31 32 32 32 32 33
13 12 11 10 9 9 9 10 11 12 12 13 13 14 15 16 17 19 20 21 21 22 22 22 23 23 24 25 26 26 28 29 30 31 31 32 33 33 34 35 35 35 35
15 14 13 12 11 11 10 10 11 12 12 13 13 14 15 16 18 20 21 21 22 22 23 23 24 25 26 27 28 29 30 31 32 33 34 35 35 35 36 36 37 38 38
17 16 15 14 13 12 12 11 12 12 12 13 14 14 15 16 18 20 21 22 22 23 24 24 25 26 27 29 30 31 32 33 34 35 35 36 37 37 38 39 40 40 40
19 18 17 16 15 14 14 14 13 13 13 14 15 16 16 17 18 20 21 23 24 25 26 27 27 29 30 31 32 32 33 33 34 35 37 38 39 40 41 42 42 43 44
21 20 19 18 18 17 16 16 16 17 16 16 17 17 18 18 19 20 21 22 24 26 27 28 29 30 30 31 32 34 35 36 37 37 39 40 41 41 43 44 44 44 45
22 21 21 20 19 19 19 19 19 19 19 19 19 19 20 20 21 21 23 24 25 27 29 30 31 32 32 33 34 36 37 39 40 40 41 42 43 44 45 46 46 46 47
23 23 23 22 21 21 21 21 21 21 21 22 22 22 22 23 24 25 25 26 28 29 31 32 33 34 35 35 36 37 39 41 42 43 44 44 45 45 46 47 48 49 51
25 25 24 24 24 23 23 23 23 24 25 24 24 24 25 25 26 27 28 29 30 31 32 33 35 36 37 38 39 41 42 43 44 44 45 45 46 47 48 49 50 51 52
27 26 26 26 26 25 24 25 25 25 25 26 25 26 27 27 28 29 30 32 33 33 34 36 37 38 39 40 41 42 43 44 45 46 46 47 48 48 49 49 50 51 52
28 27 26 25 25 25 25 26 25 25 25 26 27 27 28 29 30 31 32 33 34 35 36 37 38 39 40 42 43 44 45 45 46 47 48 48 49 50 50 51 51 52 52
25 25 25 25 25 26 26 26 26 27 27 28 28 28 30 30 31 32 33 34 35 36 37 38 39 40 41 42 44 45 46 47 48 48 49 49 50 51 51 52 53 53 53
24 25 24 24 25 26 26 27 27 28 28 29 29 30 31 31 32 34 35 36 37 38 39 40 41 42 43 44 45 46 47 47 49 49 50 51 52 52 53 53 54 54 54
Wind_Direction
318 314 306 298 284 273 258 243 230 217 213 213 211 215 217 218 223 224 221 222 221 218 219 213 207 206 206 201 197 195 184 175 172 173 173 176 44 18 324 303 294 292 293
320 320 317 306 283 270 258 243 228 216 212 210 210 213 214 217 220 220 218 217 216 216 216 213 210 207 203 197 194 190 183 179 180 182 183 193 123 26 8 353 336 315 304
322 325 326 316 292 275 258 238 223 212 210 211 214 215 215 215 216 217 217 216 217 217 216 214 210 204 200 197 193 189 188 189 191 194 197 193 178 187 335 334 332 327 314
323 324 328 323 304 273 254 234 217 209 209 212 212 213 213 213 214 217 217 217 217 217 215 215 208 204 202 201 198 197 198 201 206 207 209 210 220 257 297 314 317 317 316
324 326 327 327 312 280 252 230 215 210 210 208 207 209 211 214 216 218 218 217 217 217 214 213 208 209 208 206 204 205 206 212 217 221 225 230 242 258 280 294 305 306 307
327 333 332 326 316 299 260 234 216 208 207 207 209 210 213 216 218 220 219 218 218 216 216 215 214 213 213 213 213 215 217 222 225 228 234 242 250 259 270 283 294 297 300
328 333 338 334 322 307 269 233 217 214 212 209 209 211 211 213 215 216 218 220 220 219 220 218 220 220 222 222 222 224 227 230 232 234 241 247 253 260 268 279 286 291 294
327 327 333 335 326 312 275 224 212 207 207 207 208 210 212 215 215 216 219 221 222 223 222 222 225 228 229 231 231 232 234 236 238 240 245 251 257 263 269 274 280 285 289
326 329 330 328 324 306 258 218 208 203 199 202 204 207 208 213 215 216 218 221 223 225 227 228 233 235 235 236 239 239 239 242 245 248 251 255 261 265 269 272 276 280 283
315 322 321 318 315 294 243 218 206 206 203 203 210 214 213 215 218 217 218 222 224 225 230 236 239 238 239 242 245 246 246 248 251 254 256 259 263 266 269 272 274 277 281
309 313 311 309 300 285 258 231 219 215 210 209 216 217 215 218 220 219 222 225 225 227 234 240 243 243 245 247 250 250 250 251 254 257 260 263 266 268 270 272 275 277 279
305 309 301 294 290 273 254 242 233 229 228 225 221 218 217 218 222 225 228 231 231 235 240 245 247 248 250 252 253 253 253 255 257 260 263 266 268 270 271 273 275 277 278
293 299 291 282 282 273 257 250 247 242 239 236 227 226 227 227 229 232 234 236 238 243 248 251 253 255 257 258 257 256 255 257 260 262 264 267 269 270 272 274 275 277 278
283 287 279 275 274 269 263 255 252 249 247 243 239 238 238 235 236 239 241 242 245 249 252 255 256 258 260 261 261 259 258 260 262 265 267 268 269 270 272 274 276 277 278
272 274 272 271 271 268 266 258 251 248 247 245 242 240 239 241 244 244 246 248 252 254 256 257 259 260 261 262 263 263 263 263 265 267 268 269 270 271 272 273 275 276 278
265 266 267 267 265 266 263 261 255 251 247 244 241 241 245 249 251 251 252 254 257 259 260 260 262 264 264 264 266 266 266 267 268 269 270 271 273 274 275 276 276 276 277
261 261 263 263 262 265 261 259 259 254 248 245 245 247 251 257 259 257 256 258 261 262 263 264 265 267 268 268 269 270 270 271 271 271 272 273 273 274 276 276 277 277 277
256 254 255 257 259 260 258 254 253 251 249 248 251 254 257 261 262 260 260 260 260 263 265 266 268 269 270 270 270 271 272 273 273 274 275 275 275 275 275 276 277 278 277
252 250 249 252 255 254 253 253 255 254 253 252 254 256 259 262 262 262 263 265 265 266 268 270 270 271 273 271 271 273 274 275 275 276 276 276 275 276 276 276 277 277 277
247 246 246 249 251 251 251 252 255 256 255 256 258 261 263 263 264 265 267 269 270 269 270 273 272 273 274 274 275 276 276 277 277 277 278 279 278 278 278 277 276 277 278
242 243 245 247 249 252 253 254 257 258 258 260 261 263 265 266 268 269 270 272 272 273 274 275 276 276 276 276 276 277 278 278 278 278 279 278 278 278 278 278 278 278 278
240 244 247 248 249 250 254 255 258 259 260 261 263 265 267 269 271 272 274 275 276 277 278 279 279 279 277 277 278 278 278 278 277 278 278 278 278 279 279 280 280 279 278
240 243 247 250 250 250 252 256 258 259 260 264 266 267 267 268 271 272 275 277 277 277 279 280 280 280 280 278 278 279 279 278 278 278 278 279 279 279 280 280 280 280 279
239 241 243 247 249 250 252 254 256 260 262 265 268 269 270 271 273 275 277 279 279 279 280 281 282 283 282 281 280 281 280 279 279 280 280 280 280 280 280 280 280 279 280
236 239 242 245 247 250 254 255 257 261 264 267 269 270 272 274 275 277 278 279 280 281 282 282 283 283 283 283 282 282 282 281 281 281 281 281 281 281 281 281 281 281 280
236 238 241 245 248 252 255 257 261 263 265 268 270 272 274 275 277 278 279 280 281 282 282 283 284 284 284 284 284 284 283 283 282 281 281 282 282 282 282 282 282 282 281